Terminal Aerodrome Forecast
Issued by NWS Newport/Morehead City, NC

Home | Current Version | Previous Version | Graphics & Text | Print | Product List | Glossary On
Versions: 1 2 3 4 5 6 7 8 9 10 11 12 13 14 15 16 17 18 19 20
848
FTUS42 KMHX 290736 AAA
TAFEWN
TAF AMD
KEWN 290736Z 2908/3006 05004KT P6SM VCSH BKN005
      TEMPO 2908/2910 SCT005 BKN015
     FM291000 07005KT P6SM VCSH OVC020
     FM291300 12007KT 6SM SHRA OVC020
     FM291800 14008KT 5SM SHRA SCT020 OVC035=

USA.gov is the U.S. government's official web portal to all federal, state and local government web resources and services.